Vinemont, AL

8:00 AM CST on February 26, 2017 (GMT -0600)
Cullman

Weather History for K3A1 - March, 2012

Change the Weather History Date:

Thursday, March 1, 2012

  Actual Average (KHSV) Record (KHSV)
Temperature  
Mean Temperature 62 °F -  
Max Temperature 75 °F 58 °F 81 °F (1932)
Min Temperature 48 °F 38 °F 15 °F (1980)
Degree Days  
Heating Degree Days 4    
Growing Degree Days 12 (Base 50)    
Moisture  
Dew Point 34 °F    
Average Humidity 44    
Maximum Humidity 90    
Minimum Humidity 8    
Precipitation  
Precipitation 0.00 in - - ()
Sea Level Pressure  
Sea Level Pressure 29.94 in    
Wind  
Wind Speed 0 mph (SW)    
Max Wind Speed 5 mph    
Max Gust Speed -    
Visibility 10 miles    
Events      
Averages and records for this station are not official NWS values.
T = Trace of Precipitation, MM = Missing Value Source: NWS Daily Summary

Daily Weather History Graph

Daily Weather History Graph

Search for Another Location

Airport or City:

Trip Planner

Search our weather history database for the weather conditions in past years. The results will help you decide how hot, cold, wet, or windy it might be!

Date:

Astronomy

Mar. 01, 2012 Rise Set
Actual Time 6:15 AM CST 5:44 PM CST
Civil Twilight 5:50 AM CST 6:09 PM CST
Nautical Twilight 5:21 AM CST 6:38 PM CST
Astronomical Twilight 4:52 AM CST 7:07 PM CST
Moon 11:15 AM CST (3/1) 1:02 AM CST (3/1)
Length of Visible Light 12h 18m
Length of Day
11h 28m
First Quarter, 57% of the Moon is Illuminated
Mar 1
First Quarter
Mar 8
Full
Mar 14
Last Quarter
Mar 22
New
Mar 30
First Quarter

Hourly Weather History & Observations

Time (CST) Temp. Dew Point Humidity Pressure Visibility Wind Dir Wind Speed Gust Speed Precip Events Conditions
12:35 AM 67.3 °F 63.7 °F 88% 29.94 in 7.0 mi Calm Calm - N/A   Mostly Cloudy
12:55 AM 65.5 °F 62.1 °F 89% 29.94 in 7.0 mi Calm Calm - N/A   Scattered Clouds
1:15 AM 64.6 °F 61.2 °F 89% 29.94 in 7.0 mi Calm Calm - N/A   Clear
1:35 AM 63.0 °F 59.9 °F 90% 29.94 in 5.0 mi Calm Calm - N/A   Clear
1:55 AM 63.0 °F 59.9 °F 90% 29.94 in 5.0 mi Calm Calm - N/A   Scattered Clouds
2:15 AM 62.4 °F 59.4 °F 90% 29.93 in 10.0 mi Calm Calm - N/A   Scattered Clouds
2:35 AM 61.7 °F 58.6 °F 90% 29.93 in 10.0 mi Calm Calm - N/A   Scattered Clouds
2:55 AM 61.7 °F 58.5 °F 89% 29.93 in 10.0 mi NW 3.5 mph - N/A   Mostly Cloudy
3:15 AM 61.0 °F 57.4 °F 88% 29.93 in 10.0 mi Calm Calm - N/A   Scattered Clouds
3:35 AM 60.4 °F 56.5 °F 87% 29.94 in 10.0 mi Calm Calm - N/A   Clear
3:55 AM 59.5 °F 55.8 °F 87% 29.95 in 10.0 mi Calm Calm - N/A   Clear
4:15 AM 59.0 °F 55.4 °F 88% 29.95 in 7.0 mi Calm Calm - N/A   Scattered Clouds
4:35 AM 58.1 °F 54.0 °F 86% 29.97 in 10.0 mi Calm Calm - N/A   Clear
4:55 AM 58.1 °F 47.3 °F 67% 29.98 in 10.0 mi Calm Calm - N/A   Scattered Clouds
5:15 AM 56.7 °F 41.2 °F 56% 29.99 in 10.0 mi Calm Calm - N/A   Clear
5:35 AM 54.5 °F 37.4 °F 52% 29.99 in 10.0 mi Calm Calm - N/A   Clear
5:55 AM 52.5 °F 42.3 °F 68% 30.00 in 10.0 mi Calm Calm - N/A   Clear
6:15 AM 49.8 °F 44.8 °F 83% 30.00 in 10.0 mi Calm Calm - N/A   Clear
6:35 AM 48.4 °F 44.2 °F 86% 30.00 in 10.0 mi Calm Calm - N/A   Clear
6:55 AM 51.6 °F 42.6 °F 71% 30.00 in 10.0 mi Calm Calm - N/A   Clear
7:15 AM 54.5 °F 31.8 °F 42% 30.00 in 10.0 mi Calm Calm - N/A   Clear
7:35 AM 55.4 °F 28.8 °F 36% 30.00 in 10.0 mi Calm Calm - N/A   Clear
7:55 AM 55.0 °F 33.3 °F 44% 30.01 in 10.0 mi Calm Calm - N/A   Clear
8:15 AM 57.2 °F 29.3 °F 35% 30.01 in 10.0 mi Calm Calm - N/A   Clear
8:35 AM 58.1 °F 24.4 °F 27% 30.00 in 10.0 mi Calm Calm - N/A   Clear
8:55 AM 58.8 °F 19.9 °F 22% 30.00 in 10.0 mi Calm Calm - N/A   Clear
9:15 AM 60.3 °F 19.2 °F 20% 30.00 in 10.0 mi Calm Calm - N/A   Clear
9:35 AM 61.5 °F 14.9 °F 16% 30.00 in 10.0 mi Calm Calm - N/A   Clear
9:55 AM 63.1 °F 13.3 °F 14% 30.00 in 10.0 mi Calm Calm - N/A   Clear
10:15 AM 66.4 °F 10.0 °F 11% 30.00 in 10.0 mi Calm Calm - N/A   Clear
10:35 AM 68.0 °F 14.9 °F 13% 30.00 in 10.0 mi Calm Calm - N/A   Clear
10:55 AM 68.0 °F 14.2 °F 13% 30.00 in 10.0 mi Calm Calm - N/A   Clear
11:15 AM 68.0 °F 13.1 °F 12% 29.99 in 10.0 mi Calm Calm - N/A   Clear
11:35 AM 69.3 °F 13.3 °F 12% 29.98 in 10.0 mi Calm Calm - N/A   Clear
11:55 AM 71.8 °F 14.0 °F 11% 29.97 in 10.0 mi Calm Calm - N/A   Clear
12:15 PM 73.0 °F 12.7 °F 10% 29.96 in 10.0 mi Calm Calm - N/A   Clear
12:55 PM 73.0 °F 12.4 °F 10% 29.93 in 10.0 mi South 4.6 mph - N/A   Clear
1:35 PM 74.1 °F 14.9 °F 11% 29.91 in 10.0 mi Calm Calm - N/A   Clear
1:55 PM 75.6 °F 12.2 °F 9% 29.90 in 10.0 mi SSW 3.5 mph - N/A   Clear
2:15 PM 75.6 °F 9.0 °F 8% 29.90 in 10.0 mi Calm Calm - N/A   Clear
2:35 PM 75.6 °F 9.1 °F 8% 29.90 in 10.0 mi Calm Calm - N/A   Clear
3:15 PM 75.7 °F 13.3 °F 9% 29.89 in 10.0 mi Calm Calm - N/A   Clear
3:35 PM 75.7 °F 16.3 °F 11% 29.89 in 10.0 mi Calm Calm - N/A   Clear
3:55 PM 75.6 °F 17.4 °F 11% 29.89 in 10.0 mi Calm Calm - N/A   Clear
4:15 PM 75.6 °F 20.5 °F 13% 29.89 in 10.0 mi Calm Calm - N/A   Clear
4:35 PM 75.0 °F 23.5 °F 15% 29.88 in 10.0 mi Calm Calm - N/A   Clear
4:55 PM 73.2 °F 24.8 °F 16% 29.88 in 10.0 mi Calm Calm - N/A   Clear
5:15 PM 73.0 °F 27.7 °F 19% 29.88 in 10.0 mi Calm Calm - N/A   Clear
5:35 PM 71.4 °F 31.6 °F 23% 29.88 in 7.0 mi Calm Calm - N/A   Clear
5:55 PM 68.5 °F 37.0 °F 31% 29.88 in 10.0 mi Calm Calm - N/A   Clear
6:15 PM 66.6 °F 41.4 °F 40% 29.87 in 10.0 mi Calm Calm - N/A   Clear
6:35 PM 62.8 °F 43.3 °F 49% 29.87 in 10.0 mi Calm Calm - N/A   Clear
6:55 PM 63.0 °F 44.1 °F 50% 29.86 in 10.0 mi Calm Calm - N/A   Clear
7:15 PM 64.2 °F 41.7 °F 44% 29.86 in 10.0 mi Calm Calm - N/A   Clear
7:35 PM 65.5 °F 41.5 °F 42% 29.86 in 10.0 mi Calm Calm - N/A   Scattered Clouds
7:55 PM 66.0 °F 45.0 °F 47% 29.86 in 10.0 mi Calm Calm - N/A   Scattered Clouds
8:15 PM 68.0 °F 45.7 °F 45% 29.86 in 10.0 mi Calm Calm - N/A   Scattered Clouds
8:35 PM 68.0 °F 46.6 °F 46% 29.85 in 10.0 mi Calm Calm - N/A   Scattered Clouds
8:55 PM 68.0 °F 46.6 °F 46% 29.86 in 10.0 mi Calm Calm - N/A   Clear
9:15 PM 68.0 °F 48.0 °F 49% 29.86 in 10.0 mi SSE 6.9 mph - N/A   Clear
9:35 PM 68.0 °F 51.3 °F 55% 29.85 in 10.0 mi Calm Calm - N/A   Scattered Clouds
9:55 PM 66.9 °F 53.8 °F 63% 29.85 in 10.0 mi Calm Calm - N/A   Mostly Cloudy
10:15 PM 66.7 °F 56.3 °F 69% 29.84 in 10.0 mi Calm Calm - N/A   Mostly Cloudy
10:35 PM 67.5 °F 59.2 °F 75% 29.84 in 10.0 mi Calm Calm - N/A   Mostly Cloudy
10:55 PM 68.0 °F 61.0 °F 78% 29.84 in 10.0 mi South 8.1 mph - N/A   Mostly Cloudy
11:15 PM 68.0 °F 62.1 °F 81% 29.84 in 10.0 mi South 8.1 mph - N/A   Mostly Cloudy
11:55 PM 68.0 °F 63.3 °F 85% 29.83 in 10.0 mi South 10.4 mph - N/A   Overcast